QPF
0.00 0.00 0.00 0.00 0.00 0.00 0.00 0.00 0.00 0.00 0.00 0.00 0.00 0.00 0.00 0.00 0.00 0.00 0.00 0.00 0.00 0.00 0.00 0.00 0.00 0.00 0.00 0.00 0.00 0.00 0.00 0.00
0.00 0.00 0.00 0.00 0.00 0.00 0.00 0.00 0.00 0.00 0.00 0.00 0.00 0.00 0.00 0.00 0.00 0.00 0.00 0.00 0.00 0.00 0.00 0.00 0.00 0.00 0.00 0.00 0.00 0.00 0.00 0.00
0.00 0.00 0.00 0.00 0.00 0.00 0.00 0.00 0.00 0.00 0.00 0.00 0.00 0.00 0.00 0.00 0.00 0.00 0.00 0.00 0.00 0.00 0.00 0.00 0.00 0.00 0.00 0.00 0.00 0.00 0.00 0.00
0.00 0.00 0.00 0.00 0.00 0.00 0.00 0.00 0.00 0.00 0.00 0.00 0.00 0.00 0.00 0.00 0.00 0.00 0.00 0.00 0.00 0.00 0.00 0.00 0.00 0.00 0.00 0.00 0.00 0.00 0.00 0.00
0.00 0.00 0.00 0.00 0.00 0.00 0.00 0.00 0.00 0.00 0.00 0.00 0.00 0.00 0.00 0.00 0.00 0.00 0.00 0.00 0.00 0.00 0.00 0.00 0.00 0.00 0.00 0.00 0.00 0.00 0.00 0.00
0.00 0.00 0.00 0.00 0.00 0.00 0.00 0.00 0.00 0.00 0.00 0.00 0.00 0.00 0.00 0.00 0.00 0.00 0.00 0.00 0.00 0.00 0.00 0.00 0.00 0.00 0.00 0.00 0.00 0.00 0.00 0.00
0.00 0.00 0.00 0.00 0.00 0.00 0.00 0.00 0.00 0.00 0.00 0.00 0.00 0.00 0.00 0.00 0.00 0.00 0.00 0.00 0.00 0.00 0.00 0.00 0.00 0.00 0.00 0.00 0.00 0.00 0.00 0.00
0.22 0.02 0.00 0.00 0.00 0.00 0.00 0.00 0.00 0.00 0.00 0.00 0.00 0.00 0.01 0.04 0.00 0.00 0.00 0.00 0.00 0.00 0.00 0.00 0.00 0.00 0.00 0.00 0.00 0.00 0.00 0.00
0.10 0.08 0.02 0.00 0.01 0.01 0.00 0.01 0.03 0.02 0.00 0.00 0.00 0.00 0.01 0.08 0.00 0.00 0.00 0.00 0.00 0.00 0.00 0.00 0.00 0.00 0.00 0.00 0.00 0.00 0.00 0.00
0.17 0.14 0.20 0.20 0.11 0.11 0.08 0.02 0.08 0.18 0.08 0.01 0.01 0.01 0.04 0.08 0.03 0.01 0.02 0.01 0.00 0.01 0.02 0.01 0.00 0.00 0.00 0.00 0.00 0.00 0.00 0.00
0.07 0.15 0.34 0.44 0.58 0.35 0.29 0.25 0.14 0.14 0.11 0.07 0.07 0.03 0.04 0.10 0.07 0.04 0.05 0.04 0.03 0.06 0.05 0.02 0.01 0.00 0.00 0.00 0.00 0.00 0.00 0.00
0.00 0.02 0.08 0.14 0.45 0.65 0.40 0.45 0.38 0.19 0.10 0.06 0.10 0.10 0.15 0.17 0.10 0.06 0.07 0.05 0.01 0.00 0.00 0.00 0.01 0.02 0.01 0.00 0.00 0.00 0.00 0.00
0.00 0.00 0.00 0.03 0.13 0.20 0.30 0.34 0.23 0.16 0.16 0.25 0.14 0.08 0.06 0.13 0.07 0.04 0.07 0.06 0.06 0.06 0.02 0.01 0.01 0.00 0.00 0.00 0.00 0.00 0.00 0.00
0.00 0.00 0.00 0.00 0.02 0.04 0.06 0.16 0.15 0.10 0.09 0.10 0.18 0.10 0.06 0.05 0.08 0.07 0.08 0.08 0.08 0.07 0.04 0.02 0.01 0.00 0.00 0.00 0.00 0.00 0.00 0.00
0.00 0.00 0.00 0.00 0.00 0.01 0.01 0.02 0.02 0.03 0.05 0.05 0.07 0.10 0.13 0.15 0.19 0.15 0.13 0.10 0.06 0.03 0.01 0.00 0.01 0.02 0.01 0.00 0.00 0.00 0.00 0.00
0.00 0.00 0.00 0.00 0.00 0.00 0.00 0.01 0.02 0.03 0.05 0.06 0.06 0.08 0.06 0.06 0.06 0.09 0.10 0.07 0.02 0.01 0.01 0.00 0.01 0.04 0.04 0.01 0.00 0.00 0.00 0.00
0.00 0.00 0.00 0.00 0.00 0.00 0.00 0.00 0.00 0.00 0.00 0.01 0.01 0.01 0.02 0.05 0.08 0.10 0.05 0.02 0.01 0.01 0.00 0.00 0.00 0.00 0.00 0.00 0.00 0.00 0.00 0.00
0.00 0.00 0.00 0.00 0.00 0.00 0.00 0.00 0.00 0.00 0.00 0.00 0.00 0.00 0.01 0.02 0.05 0.05 0.05 0.03 0.01 0.01 0.00 0.00 0.00 0.00 0.00 0.00 0.00 0.00 0.00 0.00
0.00 0.00 0.00 0.00 0.00 0.00 0.00 0.00 0.00 0.00 0.00 0.00 0.00 0.00 0.00 0.01 0.02 0.05 0.07 0.04 0.02 0.01 0.00 0.00 0.00 0.00 0.00 0.00 0.00 0.00 0.00 0.00
MSLP
1002.37 1003.04 1003.50 1004.37 1005.62 1007.13 1008.60 1009.82 1010.67 1011.57 1012.10 1012.34 1012.42 1012.78 1012.92 1012.91 1013.54 1014.11 1014.62 1014.86 1015.25 1015.67 1016.00 1016.60 1016.99 1017.50 1018.27 1018.72 1019.17 1019.73 1020.35 1020.92
1002.10 1002.86 1003.38 1004.05 1005.27 1006.72 1007.95 1009.43 1010.41 1011.19 1011.83 1012.12 1012.29 1012.76 1012.82 1012.93 1013.29 1013.96 1014.54 1015.09 1015.53 1015.78 1016.34 1016.87 1017.19 1017.50 1018.00 1018.56 1019.20 1019.86 1020.62 1021.17
1001.73 1002.68 1003.27 1003.95 1004.93 1006.02 1007.48 1008.78 1009.96 1010.75 1011.28 1011.67 1011.83 1012.32 1012.62 1012.83 1013.27 1014.03 1014.61 1015.30 1015.78 1015.99 1016.39 1017.13 1017.41 1017.64 1018.22 1018.75 1019.28 1020.13 1020.74 1021.18
1000.88 1002.18 1003.10 1003.69 1004.69 1005.61 1006.68 1008.10 1009.30 1010.24 1010.74 1011.31 1011.53 1011.85 1012.41 1012.98 1013.60 1014.12 1014.64 1015.29 1015.82 1016.01 1016.39 1016.94 1017.45 1017.77 1018.43 1018.96 1019.40 1019.88 1020.79 1021.32
999.56 1001.28 1002.60 1003.26 1004.04 1005.23 1006.18 1007.35 1008.45 1009.50 1010.13 1010.65 1011.06 1011.51 1012.20 1012.74 1013.53 1014.14 1014.79 1015.22 1015.77 1016.04 1016.45 1016.92 1017.48 1017.97 1018.59 1019.14 1019.46 1019.74 1020.33 1021.10
997.85 999.48 1001.06 1002.49 1003.53 1004.45 1005.47 1006.76 1007.60 1008.66 1009.41 1010.02 1010.75 1011.34 1011.92 1012.46 1013.14 1013.98 1014.74 1015.37 1015.68 1016.14 1016.60 1017.10 1017.74 1018.18 1018.62 1018.97 1019.42 1019.74 1020.05 1020.67
997.55 997.95 998.41 1000.29 1002.74 1004.06 1005.11 1005.87 1007.04 1007.98 1008.87 1009.54 1010.35 1011.16 1011.75 1012.28 1012.84 1013.73 1014.54 1015.43 1015.95 1016.24 1016.75 1017.32 1017.72 1018.07 1018.48 1018.76 1019.26 1019.66 1019.95 1020.33
999.42 998.66 999.04 998.71 1000.66 1002.95 1004.21 1005.24 1006.20 1007.20 1008.16 1009.43 1009.70 1010.74 1011.49 1012.07 1012.47 1013.11 1013.86 1015.00 1015.92 1016.46 1016.94 1017.39 1017.81 1018.15 1018.59 1018.96 1019.43 1019.81 1019.98 1020.29
997.98 997.34 997.78 998.12 999.12 1001.90 1003.75 1005.01 1006.18 1006.83 1007.64 1008.59 1009.48 1010.12 1010.96 1011.84 1011.97 1012.68 1013.47 1013.98 1015.32 1016.18 1017.01 1017.36 1017.76 1018.06 1018.51 1018.95 1019.48 1019.98 1020.19 1020.35
998.56 998.81 999.24 997.77 999.77 1002.11 1003.12 1004.70 1005.76 1006.47 1007.29 1008.07 1009.10 1009.68 1010.21 1011.17 1012.17 1012.61 1013.27 1013.81 1015.01 1016.12 1016.99 1017.31 1017.53 1018.28 1018.62 1018.95 1019.50 1019.66 1020.12 1020.41
998.23 999.50 1000.00 999.45 1000.59 1002.56 1003.46 1004.32 1005.58 1006.60 1007.19 1007.71 1008.03 1008.71 1010.05 1010.86 1012.22 1012.62 1012.94 1014.15 1014.73 1016.35 1017.14 1017.80 1018.30 1018.02 1018.57 1018.75 1019.37 1019.36 1020.15 1020.29
1000.93 1002.03 1002.56 1002.43 1002.89 1004.26 1004.52 1004.77 1005.72 1006.79 1007.61 1008.04 1008.46 1009.01 1010.13 1011.37 1012.81 1013.52 1013.77 1013.80 1014.74 1016.08 1016.90 1017.32 1018.33 1018.81 1018.98 1018.98 1019.86 1019.57 1019.68 1020.23
1002.70 1003.29 1004.30 1004.70 1004.46 1004.78 1005.49 1005.89 1006.30 1007.31 1007.57 1007.92 1008.25 1009.32 1010.34 1011.09 1013.03 1013.51 1014.12 1014.57 1015.49 1016.42 1017.03 1017.70 1018.12 1018.62 1019.15 1019.39 1019.95 1019.68 1020.40 1020.05
1003.41 1004.20 1004.97 1005.74 1006.25 1006.42 1006.78 1007.03 1006.81 1006.62 1007.49 1007.97 1007.82 1009.21 1010.60 1011.32 1012.37 1013.23 1014.05 1014.62 1015.58 1016.23 1016.98 1017.61 1017.79 1017.87 1018.72 1019.45 1019.95 1020.05 1020.63 1020.75
1004.58 1004.99 1005.52 1006.09 1006.78 1007.24 1007.50 1007.95 1008.10 1008.30 1008.50 1009.14 1009.83 1010.34 1011.00 1011.49 1012.39 1013.33 1014.12 1014.83 1015.59 1016.36 1017.03 1017.66 1018.07 1018.03 1017.92 1018.23 1018.24 1019.15 1020.28 1020.83
1005.57 1005.80 1006.03 1006.34 1006.46 1006.84 1007.37 1008.00 1008.59 1009.08 1009.55 1009.78 1010.10 1010.83 1011.34 1012.39 1013.36 1013.67 1013.62 1014.81 1015.53 1015.98 1016.69 1017.58 1018.27 1018.83 1018.74 1018.94 1018.58 1018.59 1019.10 1019.97
1006.61 1006.95 1006.97 1006.84 1006.61 1006.63 1006.80 1007.34 1008.33 1009.10 1009.70 1010.27 1010.89 1011.31 1011.96 1012.65 1013.14 1013.62 1013.93 1014.85 1015.59 1016.09 1016.24 1017.33 1018.35 1018.82 1018.94 1018.68 1019.00 1019.28 1019.93 1020.21
1007.72 1008.08 1008.09 1007.89 1007.51 1007.10 1007.12 1007.43 1008.15 1008.82 1009.69 1010.51 1011.13 1011.63 1012.25 1012.92 1013.22 1013.76 1014.09 1014.92 1015.58 1015.90 1016.21 1017.24 1018.03 1018.54 1018.90 1018.89 1019.10 1019.39 1019.97 1020.63
1008.98 1009.10 1009.33 1009.22 1008.64 1008.45 1008.17 1008.17 1008.37 1009.30 1009.94 1010.80 1011.55 1012.32 1013.02 1013.40 1013.63 1014.04 1014.55 1015.05 1015.56 1015.88 1016.45 1017.03 1017.66 1018.07 1018.38 1018.84 1018.91 1019.36 1019.74 1020.20
Thickness
5751 5750 5755 5753 5749 5740 5731 5725 5722 5718 5717 5718 5721 5719 5721 5723 5720 5717 5714 5714 5711 5710 5709 5706 5703 5701 5695 5692 5689 5685 5679 5674
5747 5747 5748 5748 5744 5739 5732 5724 5720 5717 5714 5714 5715 5712 5716 5720 5720 5715 5712 5709 5706 5706 5704 5700 5699 5698 5695 5692 5686 5680 5673 5669
5738 5739 5738 5741 5737 5738 5731 5725 5719 5717 5715 5714 5716 5714 5715 5717 5716 5711 5708 5704 5702 5701 5700 5696 5694 5693 5689 5686 5682 5674 5668 5665
5734 5734 5732 5735 5733 5735 5732 5726 5721 5717 5716 5713 5714 5715 5713 5711 5709 5706 5704 5699 5697 5697 5695 5693 5690 5688 5682 5679 5676 5672 5662 5659
5739 5732 5727 5731 5732 5733 5729 5725 5720 5716 5715 5713 5712 5710 5705 5705 5702 5700 5698 5696 5692 5692 5690 5688 5685 5681 5676 5672 5671 5669 5664 5654
5740 5740 5734 5732 5728 5728 5726 5721 5718 5715 5713 5712 5709 5705 5704 5703 5701 5697 5693 5689 5688 5686 5684 5681 5678 5674 5671 5669 5665 5664 5661 5655
5738 5743 5746 5735 5726 5723 5718 5719 5714 5711 5708 5708 5705 5699 5697 5696 5696 5692 5686 5679 5680 5678 5675 5672 5670 5668 5666 5665 5661 5658 5657 5652
5699 5709 5728 5733 5727 5722 5717 5716 5712 5708 5705 5697 5699 5695 5692 5692 5692 5690 5685 5678 5672 5669 5666 5664 5663 5660 5658 5656 5654 5651 5650 5646
5708 5698 5737 5738 5729 5718 5709 5704 5700 5702 5701 5696 5694 5692 5688 5685 5691 5686 5680 5679 5669 5663 5656 5657 5655 5652 5651 5648 5646 5642 5640 5638
5703 5712 5720 5721 5714 5706 5704 5696 5694 5696 5695 5692 5689 5688 5689 5686 5679 5676 5672 5670 5659 5655 5650 5649 5649 5644 5643 5641 5637 5635 5632 5629
5702 5692 5687 5679 5698 5691 5693 5692 5688 5684 5684 5685 5688 5687 5681 5676 5666 5666 5667 5655 5655 5644 5640 5636 5635 5638 5633 5635 5629 5627 5621 5620
5675 5667 5667 5668 5665 5663 5667 5677 5677 5675 5672 5673 5672 5675 5672 5659 5653 5648 5650 5651 5645 5640 5634 5632 5625 5622 5621 5621 5614 5616 5615 5612
5654 5652 5645 5642 5648 5646 5652 5661 5662 5659 5664 5667 5659 5657 5655 5650 5635 5639 5638 5637 5633 5628 5624 5620 5617 5614 5611 5609 5603 5606 5600 5602
5641 5639 5634 5628 5630 5636 5640 5643 5648 5644 5650 5650 5641 5637 5640 5641 5636 5633 5630 5628 5624 5621 5617 5612 5611 5612 5605 5598 5595 5593 5587 5586
5620 5624 5624 5622 5619 5621 5626 5626 5626 5629 5635 5632 5632 5630 5631 5633 5629 5624 5620 5618 5614 5610 5607 5604 5600 5601 5603 5600 5599 5588 5577 5572
5602 5606 5610 5612 5615 5615 5615 5615 5615 5615 5616 5617 5619 5618 5620 5616 5611 5613 5617 5609 5605 5606 5602 5595 5589 5586 5589 5589 5590 5587 5583 5576
5583 5587 5592 5597 5603 5607 5609 5609 5607 5607 5606 5604 5603 5605 5603 5602 5603 5603 5605 5600 5596 5597 5598 5588 5581 5577 5577 5583 5580 5578 5572 5572
5563 5565 5570 5577 5585 5593 5595 5597 5596 5595 5595 5593 5593 5592 5591 5591 5592 5591 5593 5589 5587 5588 5588 5580 5575 5573 5570 5571 5571 5570 5565 5558
5541 5546 5549 5555 5566 5572 5579 5583 5586 5582 5582 5580 5579 5577 5574 5576 5578 5579 5578 5577 5576 5578 5575 5573 5570 5568 5566 5563 5565 5561 5559 5553